Regional Weather Roundup
Issued by NWS

Home | Current Version | Previous Version | Graphics & Text | Print | Product List | Glossary On
Versions: 1 2 3 4 5 6 7 8 9 10 11 12 13 14 15 16 17 18 19 20 21 22 23 24 25 26 27 28 29 30 31 32 33 34 35 36 37 38 39 40 41 42 43 44 45 46 47 48 49 50
000
ASUS45 KBOU 220007
RWRCO

WEATHER ROUNDUP FOR COLORADO
NATIONAL WEATHER SERVICE DENVER/BOULDER CO
600 PM MDT SUN SEP 21 2014

NOTE: "FAIR" INDICATES FEW OR NO CLOUDS BELOW 12000 FEET WITH NO
SIGNIFICANT WEATHER AND/OR OBSTRUCTIONS TO VISIBILITY.

COZ001>005-013-030-031-220100-
...NORTHWEST COLORADO...

CITY           SKY/WX    TMP DP  RH WIND       PRES   REMARKS
CRAIG          PTSUNNY   64  51  62 E10       30.25F
HAYDEN         CLOUDY    61  48  63 E14       30.29F
MEEKER         NOT AVBL
MOUNT WERNER   NOT AVBL
STEAMBOAT SPGS CLOUDY    58  52  81 CALM      30.32F
WALDEN         CLOUDY    55  43  62 E8        30.43S
$$

COZ006>008-011-220100-
...WEST CENTRAL VALLEYS...

CITY           SKY/WX    TMP DP  RH WIND       PRES   REMARKS
GRAND JUNCTION CLOUDY    65  55  70 N20G26    30.18S
MONTROSE       PTSUNNY   74  57  55 NW10      30.19S
EAGLE          MOSUNNY   70  48  46 NE6       30.31F
RIFLE          PTSUNNY   74  49  41 E10       30.17F
DELTA          RAIN      80  53  39 W6        30.14F
NUCLA          CLOUDY    72  50  46 NW12      30.23R
$$

COZ017>023-064>068-220100-
...SOUTHWEST COLORADO...

CITY           SKY/WX    TMP DP  RH WIND       PRES   REMARKS
DURANGO        PTSUNNY   74  47  38 W6        30.26S
CORTEZ         SUNNY     79  46  31 SE8       30.19S
PAGOSA SPRINGS CLOUDY    70  38  30 NW6       30.35S
TELLURIDE      NOT AVBL
WOLF CREEK PAS CLOUDY    48  36  61 SW14G22   30.64S
$$

COZ009-010-012-014-032>034-037-058>063-220100-
...CENTRAL COLORADO...

CITY           SKY/WX    TMP DP  RH WIND       PRES   REMARKS
ASPEN          MOSUNNY   65  48  54 N6        30.34F
BUENA VISTA    MOSUNNY   62  49  64 SE9       30.42S
COPPER MTN     RAIN      52  43  71 NW6       30.67S
BERTHOUD PASS  CLOUDY    39  37  93 E13       30.72S
COTTONWOOD PAS PTSUNNY   54  52  94 CALM      30.53S
GUNNISON       MOSUNNY   68  46  45 NE6       30.35F
KREMMLING      CLOUDY    55  48  76 CALM      30.41F
LEADVILLE      MOSUNNY   55  43  63 S18       30.50R
MONARCH PASS   PTSUNNY   45  43  93 E3        30.76S
SALIDA         MOSUNNY   62  53  72 SE14G24   30.45S
SUNLIGHT       PTSUNNY   50  45  81 E3        30.57S
WILKERSON PASS NOT AVBL
$$

COZ069>075-220100-
...SAN LUIS VALLEY/SANGRE DE CRISTO MOUNTAINS...

CITY           SKY/WX    TMP DP  RH WIND       PRES   REMARKS
ALAMOSA        PTSUNNY   65  50  58 E14       30.33S
LA VETA PASS   FOG       46  45  93 NE10G17   30.57R VSB 1/4
SAGUACHE       NOT AVBL
$$

COZ035-036-038>040-220100-
...NORTHERN COLORADO FRONT RANGE...

CITY           SKY/WX    TMP DP  RH WIND       PRES   REMARKS
DENVER INTL AP CLOUDY    70  49  47 NW10      30.27S
DMNS CITY PARK   N/A     67  51  55 SW2       30.27S
AURORA         PTSUNNY   68  49  52 N5        30.30R
FRONT RANGE AP NOT AVBL
ERIE MUNI ARPT NOT AVBL
BOULDER MUN AP CLOUDY    66  50  55 W3        30.27S
CENTENNIAL     PTSUNNY   67  50  54 N8        30.30S
BROOMFIELD     PTSUNNY   70  48  46 CALM      30.30S
FORT COLLINS   CLOUDY    70  48  46 NW10      30.27R
LONGMONT       CLOUDY    70  51  50 CALM      30.28S
$$

COZ041-046-047-076>085-087-088-220100-
...PIKES PEAK/PALMER DIVIDE AND SOUTHERN FOOTHILLS...

CITY           SKY/WX    TMP DP  RH WIND       PRES   REMARKS
COLO. SPRINGS  PTSUNNY   66  48  52 S13       30.36R
A. F. ACADEMY  MOSUNNY   63  50  61 S14       30.36S
ELLICOTT       NOT AVBL
FALCON         MOSUNNY   64  46  51 S12       30.40S
FORT CARSON    CLOUDY    69  49  50 SW10      30.33S
LIMON          CLEAR     69  42  37 S14       30.32S
MONUMENT HILL  CLOUDY    63  46  55 S18G28    30.36S
TRINIDAD       CLOUDY    71  50  47 E10       30.33R
$$

COZ042>045-048>051-090-091-220100-
...NORTHEAST COLORADO...

CITY           SKY/WX    TMP DP  RH WIND       PRES   REMARKS
GREELEY ARPT   CLOUDY    75  48  38 CALM      30.24S
AKRON          MOCLDY    67  41  38 E13       30.28F
BURLINGTON     MOCLDY    72  38  29 E14       30.30R
WRAY           PTCLDY    72  39  30 SE8       30.29R
STERLING       MOCLDY    75  45  33 SE10      30.26S
HOLYOKE        PTCLDY    73  43  33 E8        30.29S
FORT MORGAN    MOCLDY    69  42  37 E13       30.26S
$$

COZ086-089-092>099-220100-
...SOUTHEAST COLORADO...

CITY           SKY/WX    TMP DP  RH WIND       PRES   REMARKS
PUEBLO         MOSUNNY   74  48  39 E9        30.26S
LA JUNTA       CLEAR     78  43  28 E16       30.25S
LAMAR          CLEAR     77  42  28 SE14      30.24R
SPRINGFIELD      N/A     74  43  32 E13       30.28R
$$



USA.gov is the U.S. government's official web portal to all federal, state and local government web resources and services.